Retour au catalogue

TERRA

ActifScienceSSO
NORAD 25994·PAYLOAD·🇺🇸 United States

Lancé Dec 18, 1999 depuis Vandenberg Space Force Base

Loading…

Prochains Passages (prochaines 24 heures)

TLE

FraisSource: Space-Track

Époque: Sep 14, 2026, 14:37 UTC

1 25994U 99068A   26257.60956172  .00000236  00000-0  56998-4 0  9991
2 25994  97.9370 303.5733 0001378 344.1644 176.5310 14.61160045422666

Suivez TERRA en temps réel avec AllMySat

Download on the App Store